sat.trackr.live / text

‹ back to catalog

STARLINK-37417

NORAD 68770 · 2026-086E

PAYLOAD ACTIVE UNKNOWN

§ Identity

Operator
Country
US
Launch date
2026-04-19
Launch site
AFWTR
Launch vehicle
Mass (kg)
RCS (m²)

Purposes: comms

External: N2YO · Heavens-Above · Gunter

§ Orbital elements

Epoch: 2026-05-25T04:00:03.998880Z

Period
92.13 min
Inclination
97.2848°
Eccentricity
0.0001424
Mean motion
15.62949984 rev/d
Perigee alt
378.2 km
Apogee alt
380.1 km
Semi-major
6,757.3 km
B*
-2.3959e-2
RAAN
182.0039°
Arg perigee
95.4416°
Mean anomaly
201.3593°
Rev number
607

§ Raw data

STARLINK-374171 68770U 26086E   26145.16671295 -.01915149  00000+0 -23959-1 0  99952 68770  97.2848 182.0039 0001424  95.4416 201.3593 15.62949984  6074

JSON: /api/v1/satellites/68770 · /tle

For live sub-satellite position, see the globe view (requires WebGL).

§ Visibility from observer

Set your observer location to see the next 7 days of passes ≥ 10°. The values pass through the URL so the page stays shareable.

No JS? Fill the form by hand. The geolocation button needs JavaScript.